Printer-friendly version

IAU Minor Planet Center

Minor Planet Center

(3) Juno

Orbital Elements

The following orbital elements are taken from MPC 24084:
    (3) Juno
Epoch 2000 Feb. 26.0 TT = JDT 2451600.5  (M-c)          Bowell
M 252.81100              (2000.0)            P               Q
n   0.22617731     Peri.  248.04311     +0.52270740     -0.85165110
a   2.6679030      Node   170.17109     +0.84128495     +0.50803421
e   0.2584777      Incl.   12.96755     +0.13790073     +0.12880859
P   4.36           H    5.33          G   0.32
From 4741 observations at 65 oppositions, 1839-1993, mean residual 0".56.
An explanation of the orbital elements is available.

These orbital elements are also available in forms suitable for loading into a number of popular planetarium-type software programs.


Ephemeris

The following ephemeris is at intervals of five days. A daily ephemeris covering the same time interval is also available.

Date    TT    R. A. (2000) Decl.     Delta      r     Elong.  Phase     V
 
2000 05 16    21 25.65   -03 49.0    2.592    2.829    92.8    20.9    10.5
2000 05 21    21 29.09   -03 23.8    2.514    2.816    96.6    20.9    10.4
2000 05 26    21 32.15   -03 00.2    2.436    2.804   100.5    20.8    10.3
2000 05 31    21 34.79   -02 38.5    2.360    2.791   104.4    20.6    10.2
2000 06 05    21 36.98   -02 19.1    2.284    2.778   108.5    20.3    10.2
2000 06 10    21 38.70   -02 02.3    2.210    2.765   112.7    19.8    10.1
2000 06 15    21 39.92   -01 48.6    2.138    2.752   117.0    19.2    10.0
2000 06 20    21 40.63   -01 38.1    2.069    2.739   121.4    18.5     9.9
2000 06 25    21 40.78   -01 31.5    2.002    2.726   125.9    17.6     9.8
2000 06 30    21 40.37   -01 29.0    1.939    2.712   130.6    16.5     9.6
2000 07 05    21 39.39   -01 31.0    1.879    2.699   135.4    15.3     9.5
2000 07 10    21 37.83   -01 37.8    1.823    2.685   140.3    14.0     9.4
2000 07 15    21 35.72   -01 49.7    1.772    2.672   145.4    12.5     9.3
2000 07 20    21 33.09   -02 06.8    1.727    2.658   150.4    10.9     9.2
2000 07 25    21 29.98   -02 29.2    1.686    2.645   155.5     9.2     9.1
2000 07 30    21 26.44   -02 56.8    1.652    2.631   160.5     7.4     8.9
2000 08 04    21 22.58   -03 29.2    1.624    2.617   165.0     5.8     8.8
2000 08 09    21 18.49   -04 06.1    1.602    2.603   168.3     4.5     8.7
2000 08 14    21 14.30   -04 46.7    1.587    2.589   169.1     4.2     8.7
2000 08 19    21 10.12   -05 30.2    1.579    2.575   166.9     5.1     8.7
2000 08 24    21 06.10   -06 15.7    1.578    2.561   162.9     6.7     8.8
2000 08 29    21 02.34   -07 02.4    1.583    2.547   158.0     8.6     8.8
2000 09 03    20 58.98   -07 49.2    1.594    2.533   152.7    10.5     8.9
2000 09 08    20 56.12   -08 35.2    1.611    2.519   147.4    12.5     9.0
2000 09 13    20 53.84   -09 19.7    1.634    2.505   142.0    14.3     9.0
2000 09 18    20 52.20   -10 01.8    1.662    2.491   136.8    16.0     9.1
2000 09 23    20 51.25   -10 41.1    1.694    2.477   131.6    17.6     9.2
2000 09 28    20 51.02   -11 17.2    1.730    2.463   126.6    19.1     9.3
2000 10 03    20 51.51   -11 49.6    1.770    2.449   121.7    20.3     9.3
2000 10 08    20 52.73   -12 18.2    1.812    2.435   117.0    21.4     9.4
2000 10 13    20 54.64   -12 42.7    1.857    2.421   112.5    22.4     9.5
2000 10 18    20 57.24   -13 03.2    1.904    2.407   108.1    23.2     9.5
2000 10 23    21 00.47   -13 19.6    1.952    2.393   103.8    23.8     9.6
2000 10 28    21 04.33   -13 32.0    2.001    2.379    99.7    24.3     9.6
2000 11 02    21 08.76   -13 40.3    2.051    2.365    95.6    24.7     9.7

Back to Bright Minor Planets

Astronomical Headlines Index


Valid HTML 4.01!